Showing default

TOPEX/POSEIDON, 22076

Orbit data source: Space-Track

TOPEX/POSEIDON, 22076 is an American payload satellite in LEO that was launched on Mon, 10 Aug 1992 UTC via an ARIANE 42P launch vehicle from the French Guiana (FRGUI). Payloads include a variety of satellites, spacecraft, and rockets equipped with specific instruments for various scientific and technological missions. These include communications satellites like Starlink; space stations such as the ISS; scientific satellites like the Hubble; Earth observation satellites from companies like Planet Labs, Umbra, and HawkEye 360; GPS; miniature CubeSats for education and research; and military/defense satellites.

Loading next visibility...
TOPEX/POSEIDON details
Identifier
22076, 1992-052A
Orbit
LEO
Last TLE update21 hours ago
Origin
Flag of USJPL/CNES (US)
ManufacturerFairchild
MissionNon-operational Civil Science
Bus & MotorMMS, Unknown motor
Mass2,402 kg wet, 2,185 kg dry
Launch date (UTC)
1992-08-10 (32 years ago)
Launch vehicle
ARIANE 42P
Launch site
French Guiana (FRGUI)
Object type
Payload
Rocket body
Debris
Shape & HBRHex Poly + 1 Pan, 11.5 m
Radar Cross Section20.954 m², Large (>1 m²)

Expand to show TLE details & history

TLE from 21 hours ago
0 TOPEX/POSEIDON
1 22076U 92052A   24360.58206619 -.00000015  00000-0  20129-3 0  9991
2 22076  66.0387 171.1878 0007517 268.1946 152.9605 12.81075452514494
Epoch: 2024-12-25T13:58Z
Definitive object data (Epoch: 2024-12-25T13:58:10.518Z)
Latitude53.31301°
Longitude-96.52046°
Altitude1,350.131 km
Speed7.186 km/s
True Right ascension13h 50m 23s
True Declination53° 09' 39"
Sunlit
Object was in daylight at TLE epoch
Visualization TLE readout
Latitude50.73942°
Longitude-101.95803°
Altitude1,349.383 km
Speed7.186 km/s
Apparent Right ascension17h 41m 46s
Apparent Declination23° 12' 51"
Sunlit
Object is in daylight
Visualization observer readout
Local Sidereal Time09:54:53
Azimuth55.344° ENE
Elevation-3.671°
Doppler factor1
Orbital elements
Apogee altitude1,341.511 km
Perigee altitude1,329.914 km
Semi-major axis7,713.849 km
Eccentricity0.0007517
Inclination66.0387°
RAAN171.1878°
Arg. of periapsis268.1946°
True anomaly152.99963°
Mean anomaly152.9605°
Eccentric anomaly152.98007°
Mean motion3.20359 °/min
BSTAR0.00020129
Orbital period112.37 mins
Loading maneuver chart data...
Loading historical data...
Loading historical data...
Loading historical data...
Loading historical data...
Loading historical data...
Loading historical data...
Loading historical data...

TOPEX/POSEIDON Visibility forecast

Observer location: undefined°, undefined

Span
Click to sort rows by Start time (UTC) header in descending order
Start Az.
Max El. time (UTC)
Max El. Az.
Max El.
End time (UTC)
End Az.
14 mins2024-12-26 12:13:41.309Z172.869° S2024-12-26 12:20:41.309Z105.397° ESE32.895°2024-12-26 12:27:41.309Z44.229° NE
14 mins2024-12-26 14:09:41.309Z239.163° WSW2024-12-26 14:16:41.309Z318.209° NNW36.453°2024-12-26 14:23:41.309Z20.845° NNE
7 mins2024-12-26 16:11:41.309Z311.897° NW2024-12-26 16:14:41.309Z335.681° NNW14.425°2024-12-26 16:18:41.309Z5.781° NNE
10 mins2024-12-26 20:10:41.309Z359.39° N2024-12-26 20:14:41.309Z34.606° NE20.601°2024-12-26 20:20:41.309Z83.535° E
14 mins2024-12-26 22:05:41.309Z332.999° NNW2024-12-26 22:11:41.309Z22.077° NNE44.267°2024-12-26 22:19:41.309Z146.112° SSE
10 mins2024-12-27 00:02:41.309Z294.831° NW2024-12-27 00:06:41.309Z261.421° W19.932°2024-12-27 00:12:41.309Z212.809° SW
|